SCP
4 5 6 5 5 4 4 5 4 4 3 3 2 2 2 3 3 3 2 2 2 2 1 1 1 2 2 3 3 3 3 3 2 1 1 1 1 1 1 0 0 0 0
4 4 5 5 5 5 5 5 5 4 4 3 3 3 3 3 3 3 3 3 2 2 2 2 2 2 2 2 2 3 3 3 2 1 1 1 1 1 0 0 0 0 0
3 4 4 5 5 5 5 5 5 5 4 4 4 3 3 3 4 4 4 3 3 3 3 3 2 2 2 2 2 2 2 2 2 2 1 1 1 1 0 0 0 0 0
2 3 4 5 5 5 5 5 5 5 4 4 4 4 3 3 4 4 4 4 4 4 3 3 3 3 3 3 2 2 2 2 2 2 1 1 1 1 1 0 0 0 0
2 3 4 5 6 6 6 6 6 5 5 4 4 4 4 4 4 4 5 5 5 4 4 4 4 3 3 2 2 2 2 2 2 2 1 1 1 1 1 0 0 0 1
3 4 4 5 6 7 7 8 8 7 6 5 5 5 4 4 4 4 4 5 5 4 4 4 4 3 3 2 2 1 1 1 1 2 2 1 1 1 1 1 1 1 1
5 5 5 6 6 7 8 9 17 21 15 6 6 5 5 4 3 3 3 4 4 5 4 4 4 3 3 3 2 1 1 1 1 1 1 1 1 1 1 1 1 1 1
6 6 5 6 6 7 9 10 22 35 21 8 8 7 6 5 3 2 2 3 4 4 4 4 4 4 3 3 2 2 1 1 0 1 1 1 0 0 0 1 1 1 1
5 4 4 5 5 7 9 11 19 24 19 10 10 9 7 6 3 1 1 2 3 3 3 3 3 3 3 2 3 3 2 1 1 0 0 0 0 0 0 1 1 1 1
3 3 3 4 6 8 10 12 14 13 12 10 10 10 8 6 3 1 1 2 3 3 3 3 2 2 2 1 2 3 2 2 1 1 0 0 0 0 1 1 1 1 1
2 2 3 4 5 8 11 12 13 12 11 9 9 8 7 6 3 1 1 2 2 3 3 3 2 1 1 0 1 2 2 2 2 1 1 1 1 1 1 1 1 1 2
1 2 2 3 4 6 9 10 11 10 9 8 8 7 6 5 3 1 0 1 1 2 3 3 2 1 0 0 0 1 1 1 1 1 1 1 1 1 2 2 2 2 2
1 2 2 3 3 5 6 8 8 8 7 6 7 7 7 6 4 2 1 0 0 1 2 2 1 0 0 0 0 0 0 0 1 1 1 1 1 1 2 2 2 2 2
2 2 3 3 3 4 5 6 6 6 5 5 5 6 6 5 4 2 1 0 0 0 1 1 1 0 0 0 0 0 0 0 0 1 1 1 1 1 2 2 2 1 1
2 2 2 2 3 4 4 4 4 4 3 3 3 3 3 2 2 1 1 0 0 0 0 0 0 1 0 0 0 1 0 1 1 1 1 1 1 1 1 1 1 1 1
1 1 2 2 2 3 3 3 2 2 1 1 1 1 1 1 0 0 0 0 0 0 0 0 0 1 0 0 1 1 1 1 1 1 1 1 1 1 1 1 1 1 0
1 1 1 1 2 2 2 2 1 1 1 0 0 0 0 0 0 0 0 0 0 0 0 0 0 0 0 1 1 1 1 1 1 1 1 1 1 0 0 0 0 0 0
1 1 1 1 1 1 1 1 1 1 1 1 0 0 0 0 0 0 0 0 0 0 0 0 0 0 1 1 1 1 1 1 1 1 1 0 0 0 0 0 0 0 0
1 0 0 1 1 1 1 1 1 1 1 1 1 0 0 0 0 0 0 0 0 0 0 0 1 1 1 1 1 1 1 1 1 1 0 0 0 0 0 0 0 0 0
0 0 0 0 1 1 1 1 1 1 1 1 1 1 0 0 0 0 0 0 0 0 1 1 1 1 1 1 1 1 1 1 0 0 0 0 0 0 0 0 0 0 0
0 0 0 0 1 1 1 1 1 1 1 1 1 0 0 0 0 0 0 0 0 1 1 1 1 1 1 1 1 1 1 0 0 0 0 0 0 0 0 0 0 0 0
0 0 0 0 0 1 1 1 1 1 1 0 0 0 0 0 0 1 1 1 1 1 1 1 1 0 0 0 0 0 0 0 0 0 0 0 0 0 0 0 0 0 0
0 0 0 0 0 0 1 1 1 1 1 0 0 0 0 1 1 1 1 1 1 1 0 0 0 0 0 0 0 0 0 0 0 0 0 0 0 0 0 0 0 0 0
1 0 0 0 0 0 1 1 1 1 1 0 1 1 1 1 1 1 1 1 0 0 0 0 0 0 0 0 0 0 0 0 0 0 1 1 1 1 1 0 0 0 0
0 0 0 0 0 0 0 0 0 0 0 0 1 1 1 1 1 0 0 0 0 0 0 0 0 0 0 0 0 0 0 0 0 0 1 1 1 1 1 0 0 0 0
0 0 0 0 0 0 0 0 0 0 0 0 0 0 0 0 0 0 0 0 0 0 0 0 0 0 0 0 0 0 0 0 0 0 0 1 1 1 1 1 0 0 0
Wind_Speed
3 3 2 2 2 2 1 1 1 1 1 1 1 1 1 1 1 1 2 1 2 2 2 3 3 4 3 3 3 3 4 4 4 3 2 2 2 4 2 4 4 5 4
3 3 3 2 3 3 2 2 1 1 1 1 1 1 1 1 1 1 2 2 2 3 3 3 3 2 3 4 3 4 4 3 4 4 3 3 3 4 4 5 5 4 4
3 3 3 3 3 3 3 2 2 2 1 1 1 1 1 1 1 2 2 3 3 3 3 3 3 3 3 3 4 4 3 3 4 4 4 3 3 3 4 5 5 4 6
3 3 3 3 3 3 3 3 2 2 1 1 1 1 1 1 2 2 2 2 3 3 3 3 3 3 3 4 4 4 4 4 4 5 4 4 4 4 4 5 5 4 5
3 3 3 3 3 3 3 2 2 2 2 2 2 2 2 2 2 2 3 3 3 3 3 3 3 2 3 4 4 4 4 4 4 4 4 4 4 3 4 5 5 5 5
4 3 3 3 3 3 3 3 3 2 2 2 3 3 3 2 1 1 4 4 4 4 4 4 3 3 2 3 3 4 5 5 5 5 5 4 5 5 4 5 5 5 5
4 3 3 4 4 4 4 3 3 3 3 3 3 3 3 1 1 2 4 5 5 4 4 4 4 2 3 3 4 6 6 6 6 6 7 6 6 5 5 6 5 6 6
4 3 3 3 4 4 4 3 3 3 3 3 3 3 3 2 2 3 4 6 4 4 4 4 4 4 3 4 5 5 5 4 5 6 6 7 6 5 6 7 7 7 7
3 3 3 3 3 4 4 3 3 3 3 3 3 3 3 2 3 3 5 5 4 4 4 4 4 4 2 3 6 6 5 5 5 6 6 6 5 5 6 6 6 6 6
3 3 3 3 3 4 3 3 3 3 3 3 2 3 3 2 3 3 5 5 4 4 4 4 3 4 2 3 6 6 6 5 5 4 5 6 7 7 8 8 7 6 6
3 3 3 3 3 4 3 3 3 3 3 3 3 3 3 2 4 5 5 5 5 5 4 3 1 3 3 5 7 6 6 7 7 6 5 5 5 4 5 6 6 6 6
3 3 3 3 3 3 3 3 3 4 4 4 4 4 4 4 3 5 6 7 7 6 5 4 1 2 4 6 6 5 6 7 6 5 5 5 4 4 4 4 5 6 6
3 3 3 3 3 3 3 4 4 4 4 4 4 4 3 3 4 7 9 8 9 7 5 3 4 5 6 7 8 8 7 6 5 5 5 5 4 4 4 4 5 6 7
2 2 3 3 4 3 3 3 3 3 4 4 4 4 3 2 2 2 4 5 8 8 7 6 9 10 9 8 6 7 6 5 5 6 5 4 4 4 4 4 4 4 5
3 3 3 4 3 3 4 3 4 2 2 4 4 4 4 3 1 3 4 4 4 4 6 6 6 4 5 5 4 4 4 5 5 6 5 5 4 4 4 4 4 4 5
3 3 3 3 3 3 3 3 1 2 1 2 4 5 2 1 0 1 3 4 5 5 6 6 5 5 5 5 4 4 4 4 5 5 5 4 4 4 4 4 4 4 5
3 3 3 3 3 3 3 3 3 3 4 4 4 4 5 3 3 4 5 6 7 6 7 6 5 4 4 5 4 4 4 4 3 4 5 4 5 5 5 4 4 4 5
4 2 3 3 3 3 3 4 4 3 3 3 5 6 7 6 6 6 5 5 5 5 6 5 4 4 4 4 4 4 4 4 3 3 4 4 4 4 5 5 4 5 5
3 2 3 3 3 3 4 4 3 3 3 3 2 4 6 7 7 6 6 5 5 4 4 4 4 4 4 4 4 4 4 4 3 3 4 4 4 4 5 5 5 4 6
3 2 3 4 4 3 3 3 3 3 3 3 3 2 1 3 3 3 4 4 5 5 4 4 4 4 4 4 4 4 4 4 4 4 4 4 4 4 5 6 5 5 5
3 2 4 5 4 3 3 3 3 3 3 3 2 1 2 4 3 3 3 3 3 4 4 4 4 4 4 4 4 4 5 4 4 4 4 4 4 4 5 5 5 6 5
3 3 3 4 3 3 3 3 3 4 4 4 3 1 4 4 4 3 3 3 3 3 3 4 4 4 3 4 4 4 4 4 4 4 4 5 4 5 5 5 5 5 5
4 3 3 3 3 3 4 4 4 4 4 4 4 3 2 3 4 4 3 3 3 3 3 3 4 4 3 3 3 3 4 4 4 4 5 5 5 5 4 5 6 6 5
4 4 3 3 3 3 4 4 4 4 4 4 4 4 4 4 4 4 3 3 3 3 3 3 3 4 5 4 3 2 2 4 5 5 6 6 6 5 4 4 5 5 5
4 4 3 3 3 4 4 4 4 4 4 4 4 4 4 4 3 3 3 3 3 3 4 4 3 4 4 5 4 3 2 3 3 5 6 6 6 5 4 5 4 4 4
4 4 3 3 3 3 3 4 4 4 4 4 4 4 4 4 3 4 3 3 3 3 4 4 4 4 5 4 3 3 2 2 3 5 6 5 5 4 4 4 5 5 5
Wind_Direction
181 176 174 174 170 181 195 184 197 250 246 233 224 224 240 256 257 264 289 290 269 270 266 259 263 275 273 269 261 259 259 263 268 277 281 272 245 268 248 253 248 244 221
189 184 184 181 179 191 186 185 194 211 229 232 244 252 260 265 271 265 281 283 270 268 271 272 273 268 265 270 269 261 262 268 267 267 269 265 249 249 253 256 256 249 252
194 193 187 189 190 194 189 182 183 190 211 251 262 258 266 276 276 275 276 278 278 279 277 276 281 278 270 269 271 270 261 251 257 260 259 262 257 251 254 251 256 263 264
208 200 192 190 192 200 196 187 186 194 205 232 249 253 264 274 283 283 279 287 289 285 280 276 281 282 281 282 272 272 275 272 256 258 258 254 250 243 250 256 253 248 260
212 203 195 192 193 196 193 191 195 206 212 214 225 233 239 242 272 289 287 288 288 288 285 277 274 305 333 309 300 294 278 270 266 264 263 263 260 258 254 256 260 262 257
209 206 200 199 200 200 200 198 199 208 225 227 234 241 248 266 75 331 293 284 285 287 285 283 266 232 234 231 266 287 290 276 277 276 271 271 270 269 272 271 271 271 272
202 203 205 210 210 210 210 200 205 219 228 232 242 246 247 235 172 226 265 276 278 285 290 289 286 300 271 278 237 227 240 243 253 269 275 277 274 273 274 270 269 276 284
199 199 207 217 218 214 210 208 217 227 235 240 245 248 251 216 174 228 259 256 267 271 273 277 283 291 300 300 288 277 269 251 240 246 266 275 279 283 267 265 272 268 267
202 206 205 212 225 224 219 218 224 229 232 234 231 237 247 203 167 222 261 256 252 257 258 262 272 277 322 296 275 276 277 269 234 231 251 265 284 283 280 272 267 264 269
214 215 208 215 229 235 229 225 225 231 235 244 234 234 240 231 168 205 253 265 262 260 245 235 219 262 285 274 271 274 277 283 287 262 240 237 243 240 231 248 264 268 274
222 216 214 218 229 231 235 229 227 231 233 244 241 233 227 233 179 193 230 269 282 276 273 264 220 177 239 253 263 273 286 287 278 269 260 254 246 243 233 230 246 261 271
232 219 213 217 233 222 229 238 233 235 229 229 234 239 222 209 212 191 207 238 280 280 282 293 342 173 242 253 256 269 276 273 268 271 271 270 268 263 255 251 247 252 260
237 229 218 212 229 231 231 231 226 225 243 247 246 248 242 226 187 189 204 222 239 259 281 296 286 261 252 241 233 243 251 255 264 265 266 269 272 270 265 256 246 243 246
232 228 217 216 226 222 241 244 246 242 254 259 260 266 262 242 254 219 216 219 222 238 260 250 230 234 241 254 247 229 239 255 265 269 275 277 277 272 266 263 264 261 259
233 236 235 228 229 231 233 252 268 282 310 293 293 284 286 283 3 0 307 298 300 307 294 273 268 262 255 252 251 249 251 249 249 261 268 270 268 267 269 267 264 265 268
234 242 243 239 233 236 236 222 195 265 211 254 275 293 296 1 272 269 277 286 285 286 278 269 270 268 269 273 271 266 256 260 265 267 264 266 271 274 276 274 268 266 268
248 257 260 252 240 241 252 258 238 202 204 222 234 245 261 268 253 252 256 260 260 248 253 265 272 275 280 283 283 283 282 277 273 271 271 270 271 273 275 273 272 273 271
256 238 258 255 256 254 258 263 264 263 228 210 203 214 224 233 238 240 241 249 245 229 255 270 276 278 279 282 286 286 282 277 267 268 274 274 276 276 276 273 270 273 274
266 271 271 274 264 260 262 263 266 271 277 272 248 189 208 218 219 222 221 249 272 271 267 271 276 280 279 274 275 278 278 275 274 269 267 271 276 277 279 279 276 271 268
247 248 270 273 270 266 261 264 270 273 279 287 288 295 231 237 246 220 229 254 269 279 285 286 283 280 279 277 274 271 270 267 263 260 262 264 270 273 276 278 281 279 275
261 220 225 248 252 262 270 274 280 282 278 275 279 317 297 280 278 274 268 265 273 281 285 287 287 284 283 284 283 281 277 273 269 268 268 266 265 268 272 271 274 278 281
271 264 259 266 267 267 277 277 277 279 282 285 283 214 195 259 280 281 275 278 277 274 280 282 286 291 299 299 292 283 279 276 277 277 271 265 260 260 262 267 272 275 279
268 273 266 262 262 253 255 266 271 275 280 285 289 289 264 271 282 286 286 288 288 282 277 280 288 296 304 298 294 288 287 290 288 286 281 274 269 264 261 261 264 268 270
266 265 267 267 268 267 268 269 269 276 282 285 282 282 283 279 277 281 285 288 289 290 291 290 291 299 301 296 290 294 317 312 293 276 275 275 271 267 263 261 264 269 272
263 264 269 270 271 275 277 277 280 283 287 288 285 285 284 282 282 282 285 290 293 294 295 294 292 294 299 298 302 311 332 302 283 285 269 263 264 265 267 265 263 267 274
265 268 272 277 280 285 288 287 286 286 284 286 287 287 288 292 298 296 294 295 292 291 292 292 295 293 289 289 308 316 297 276 272 277 272 259 258 262 265 262 264 263 267